Location: Newark
(45.7667°N, 11.5167°E)
Time: 01:37:37
(UTC+00:00)

Envisat - Pass Details

Date: 26 January 2020
Orbit: 764 x 766 km, 98.1° (Epoch: 21 February)

Event Time Altitude Azimuth Distance (km) Brightness Sun altitude
Rises 18:31:30 0° 217° (SW) 3,222 6.8 -24.5°
Reaches altitude 10° 18:35:04 10° 243° (WSW) 2,302 6.3 -25.1°
Maximum altitude 18:37:31 13° 272° (W) 2,072 6.2 -25.6°
Drops below altitude 10° 18:39:58 10° 302° (WNW) 2,310 6.2 -26.0°
Sets 18:43:35 0° 328° (NNW) 3,243 6.7 -26.6°
